RH
46 46 48 53 59 60 61 60 59 59 63 68 72 72 74 79 90 95 85 81 84 82
41 43 45 49 53 58 61 61 61 61 64 70 71 72 73 79 79 81 81 88 88 84
51 49 48 48 53 56 60 60 61 62 61 64 76 87 89 88 87 90 92 96 94 91
57 56 55 56 57 57 55 57 61 68 75 81 85 86 92 96 96 96 93 91 93 93
65 61 59 57 58 60 63 70 77 83 88 92 95 97 94 95 98 94 88 92 97 96
75 69 64 59 63 67 69 74 79 84 93 89 83 95 96 98 94 98 96 97 93 91
47 52 60 66 62 61 62 72 81 91 91 82 75 74 82 83 84 89 92 91 87 83
29 31 35 40 50 62 76 80 80 83 85 85 84 81 78 78 76 81 87 85 81 79
36 39 43 49 62 68 67 68 74 76 78 75 75 80 80 74 77 80 85 88 84 82
45 53 60 60 62 65 67 64 64 66 60 65 64 61 66 70 75 88 93 92 89 88
56 62 62 61 59 60 60 66 64 61 61 63 65 65 66 72 73 93 98 88 86 94
63 61 58 60 62 61 62 60 59 58 60 60 65 65 68 68 71 86 97 80 88 90
58 56 58 60 59 59 59 54 59 62 61 60 64 65 68 74 87 86 87 95 89 96
59 59 59 62 63 60 59 66 68 68 66 67 67 71 77 86 94 94 90 92 97 97